This is the latest recevied weather packets stored in our database for station/object JA6CFI-13. If no packets are shown the sender has not sent any weather packets the latest 10 day(s).
| Time | Temp. | Humidity | Pressure | Rain* | Wind** | Luminosity | Snow |
|---|---|---|---|---|---|---|---|
| 1777585106 | 13.89° C | 96% | 1008.1 hPa | 0.25 mm | - | - | - |
| 1777584326 | 13.89° C | 96% | 1007.8 hPa | 0.25 mm | - | - | - |
| 1777583545 | 13.89° C | 96% | 1007.9 hPa | 0.25 mm | - | - | - |
| 1777582767 | 13.33° C | 96% | 1008 hPa | 0.25 mm | - | - | - |
| 1777581986 | 13.33° C | 96% | 1008 hPa | 0 mm | - | - | - |
| 1777581206 | 13.33° C | 96% | 1007.9 hPa | 0 mm | - | - | - |
| 1777580425 | 13.33° C | 96% | 1008 hPa | 0 mm | - | - | - |
| 1777579647 | 13.33° C | 96% | 1008 hPa | 0 mm | - | - | - |
| 1777578866 | 13.33° C | 96% | 1008 hPa | 0 mm | - | - | - |
| 1777578086 | 13.33° C | 96% | 1008.1 hPa | 0 mm | - | - | - |
| 1777577306 | 12.78° C | 96% | 1008.2 hPa | 0 mm | - | - | - |
| 1777576525 | 13.33° C | 96% | 1008.1 hPa | 0.51 mm | - | - | - |
| 1777575747 | 13.33° C | 96% | 1008.2 hPa | 0.76 mm | - | - | - |
| 1777574966 | 13.33° C | 97% | 1007.8 hPa | 1.52 mm | - | - | - |
| 1777574186 | 13.89° C | 97% | 1007.4 hPa | 1.52 mm | - | - | - |
| 1777573405 | 13.89° C | 97% | 1007.5 hPa | 1.52 mm | - | - | - |
| 1777572627 | 13.89° C | 97% | 1007.4 hPa | 1.27 mm | - | - | - |
| 1777571847 | 13.89° C | 97% | 1007.3 hPa | 0.76 mm | - | - | - |
| 1777571066 | 13.89° C | 97% | 1007.1 hPa | 0.51 mm | - | - | - |
| 1777570286 | 14.44° C | 97% | 1006.9 hPa | 0.51 mm | - | - | - |
| 1777569506 | 14.44° C | 97% | 1006.9 hPa | 1.02 mm | - | - | - |
| 1777568727 | 14.44° C | 97% | 1006.7 hPa | 1.02 mm | - | - | - |
| 1777567946 | 14.44° C | 97% | 1006.6 hPa | 1.02 mm | - | - | - |
| 1777567166 | 14.44° C | 97% | 1006.7 hPa | 1.27 mm | - | - | - |
| 1777566386 | 14.44° C | 97% | 1006.9 hPa | 0.76 mm | - | - | - |
* Rain latest hour (hover to see other rain measurements)
** Current wind speed in m/s (hover to see current wind gust speed)